"Time","Temp","Dewpoint","Humidity","Pressure","Direction","Speed","Gust","Precip","PrecipRate"
"00:04:59","69.3","58.3","68","29.87","351","2.9","8.4","0.00","0.00"
"00:09:58","69.2","58.2","68","29.87","337","1","4.8","0.00","0.00"
"00:14:58","69.1","58.2","68.1","29.87","334","1.8","7.2","0.00","0.00"
"00:19:56","69","58.3","68.8","29.87","339","2.3","6.9","0.00","0.00"
"00:24:57","68.9","58.3","68.8","29.87","328","2.3","6","0.00","0.00"
"00:29:58","68.8","58.2","69","29.87","347","2.3","9.6","0.00","0.00"
"00:34:56","68.8","58.2","69","29.87","350","2.5","9.6","0.00","0.00"
"00:39:59","68.6","58.1","69.2","29.87","327","2","10.8","0.00","0.00"
"00:44:56","68.5","58.2","69.9","29.87","350","3.8","10.4","0.00","0.00"
"00:49:58","68.4","58.2","70","29.86","347","2.9","9.6","0.00","0.00"
"00:54:56","68.2","58","70","29.86","349","3.7","15","0.00","0.00"
"00:59:58","68.1","57.9","70","29.86","341","2.6","9.6","0.00","0.00"
"01:04:58","68","57.9","70.1","29.86","345","4.2","9.6","0.00","0.00"
"01:09:57","68","57.9","70.3","29.86","337","3","13.2","0.00","0.00"
"01:14:56","67.9","58.1","71","29.86","345","4.4","12.7","0.00","0.00"
"01:19:58","67.8","58.1","71","29.86","345","3.8","12","0.00","0.00"
"01:24:59","67.7","58","71","29.86","338","4.4","12","0.00","0.00"
"01:29:57","67.7","58","71","29.86","347","2.3","11.5","0.00","0.00"
"01:34:58","67.6","57.9","71","29.86","340","2.4","7.2","0.00","0.00"
"01:39:57","67.4","57.7","71","29.86","320","2.8","8.4","0.00","0.00"
"01:44:59","67.3","57.6","71","29.86","354","4.4","13.2","0.00","0.00"
"01:49:57","67.2","57.5","71","29.86","340","1.9","8.1","0.00","0.00"
"01:54:58","67.1","57.4","71","29.86","339","2.2","6","0.00","0.00"
"01:59:56","67","57.6","71.7","29.87","346","2.5","6","0.00","0.00"
"02:04:56","66.9","57.6","72","29.87","322","3.4","8.4","0.00","0.00"
"02:09:59","66.8","57.5","72","29.87","319","2.2","7.2","0.00","0.00"
"02:14:57","66.7","57.4","72","29.88","357","2.2","7.2","0.00","0.00"
"02:19:59","66.7","57.4","72","29.88","351","2.1","6","0.00","0.00"
"02:24:56","66.7","57.4","72","29.88","346","2.4","6","0.00","0.00"
"02:29:58","66.6","57.3","72","29.88","346","2.1","7.2","0.00","0.00"
"02:34:59","66.5","57.2","72","29.87","344","3.3","6.9","0.00","0.00"
"02:39:58","66.4","57.1","72","29.87","330","2.3","4.8","0.00","0.00"
"02:44:56","66.2","57.1","72.4","29.87","345","2","8.4","0.00","0.00"
"02:49:57","66.1","57.2","73","29.87","337","2.5","8.1","0.00","0.00"
"02:54:59","66","57.1","73","29.87","353","2.6","6","0.00","0.00"
"02:59:57","65.9","57","73","29.87","341","1.9","6","0.00","0.00"
"03:04:59","65.8","56.9","73","29.87","342","1.1","3.6","0.00","0.00"
"03:09:58","65.6","56.9","73.5","29.87","358","2","7.2","0.00","0.00"
"03:14:56","65.5","57","74","29.87","355","2.7","7.2","0.00","0.00"
"03:19:58","65.4","56.9","74","29.86","352","3","7.2","0.00","0.00"
"03:24:59","65.4","56.9","74","29.86","347","2.8","7.2","0.00","0.00"
"03:29:57","65.4","56.9","74","29.86","343","2.8","9.6","0.00","0.00"
"03:34:58","65.4","56.9","74","29.86","340","3.1","7.2","0.00","0.00"
"03:39:57","65.4","56.9","74","29.86","345","2.4","9.6","0.00","0.00"
"03:44:59","65.3","56.8","74","29.86","346","2.8","7.2","0.00","0.00"
"03:49:58","65.2","56.7","74","29.86","355","1.3","6","0.00","0.00"
"03:54:58","65","56.6","74.1","29.86","354","2.3","6","0.00","0.00"
"03:59:59","64.9","56.7","74.6","29.86","352","2.7","7.2","0.00","0.00"
"04:04:59","64.8","56.7","75","29.86","344","2.1","6","0.00","0.00"
"04:09:58","64.7","56.6","75","29.86","355","2.5","7.2","0.00","0.00"
"04:14:59","64.6","56.5","75.2","29.86","355","1.4","7.2","0.00","0.00"
"04:19:59","64.5","56.4","75","29.86","349","2","6.9","0.00","0.00"
"04:24:56","64.5","56.4","75","29.86","346","1.2","6","0.00","0.00"
"04:29:58","64.4","56.3","75.1","29.87","345","0.9","5.8","0.00","0.00"
"04:34:58","64.3","56.5","75.7","29.87","342","0.9","4.6","0.00","0.00"
"04:39:59","64.3","56.6","76","29.87","324","1.6","4.8","0.00","0.00"
"04:44:57","64.3","56.6","76","29.87","332","1","4.8","0.00","0.00"
"04:49:59","64.2","56.5","76","29.87","334","0.7","3.6","0.00","0.00"
"04:54:56","64","56.3","76","29.87","334","0.2","2.4","0.00","0.00"
"04:59:58","63.9","56.2","76","29.87","334","0.1","2.3","0.00","0.00"
"05:04:58","63.7","56.2","76.4","29.87","334","0.1","1.2","0.00","0.00"
"05:09:57","63.5","56.2","77","29.87","334","0.3","2.4","0.00","0.00"
"05:14:56","63.4","56.2","77.5","29.88","334","0.8","3.6","0.00","0.00"
"05:19:57","63.2","56.2","78","29.88","334","1.2","4.8","0.00","0.00"
"05:24:59","63","56","78","29.88","334","1.1","3.6","0.00","0.00"
"05:29:56","62.9","56","78.3","29.88","338","1.7","6","0.00","0.00"
"05:34:58","62.9","56.3","79","29.88","356","1.2","5.8","0.00","0.00"
"05:39:57","62.9","56.1","78.6","29.88","313","1.5","6","0.00","0.00"
"05:44:58","62.9","56.2","78.8","29.88","315","0.7","3.6","0.00","0.00"
"05:49:56","62.8","56","78.4","29.88","325","1.3","3.6","0.00","0.00"
"05:54:57","62.8","56.2","79","29.88","352","1.6","7.2","0.00","0.00"
"05:59:59","62.8","56.2","79","29.88","355","1.1","3.6","0.00","0.00"
"06:04:59","62.7","56.1","79","29.88","355","1.1","4.8","0.00","0.00"
"06:09:59","62.6","56","79","29.88","352","1.6","3.6","0.00","0.00"
"06:14:58","62.5","55.9","79","29.89","350","0.7","3.6","0.00","0.00"
"06:19:59","62.5","55.9","79","29.89","350","0.9","4.8","0.00","0.00"
"06:24:57","62.4","55.8","79","29.89","350","1.8","6","0.00","0.00"
"06:29:59","62.4","55.8","79","29.89","348","1.6","5.8","0.00","0.00"
"06:34:56","62.4","55.9","79.3","29.89","353","1.3","6","0.00","0.00"
"06:39:55","62.4","56.1","79.9","29.89","353","2.2","6","0.00","0.00"
"06:44:57","62.4","56.1","80","29.89","355","1.6","5.8","0.00","0.00"
"06:49:56","62.4","56.1","80","29.89","355","1.6","4.8","0.00","0.00"
"06:54:57","62.5","56.1","79.8","29.89","347","2.7","8.4","0.00","0.00"
"06:59:59","62.6","56","79","29.90","350","2.4","8.4","0.00","0.00"
"07:04:56","62.7","56.1","79","29.90","341","2.7","7.2","0.00","0.00"
"07:09:59","62.8","56.2","79","29.90","351","2.1","6.9","0.00","0.00"
"07:14:57","62.9","56.3","79","29.90","350","2.8","7.2","0.00","0.00"
"07:19:58","63","56.4","79","29.90","350","2.8","7.2","0.00","0.00"
"07:24:58","63.1","56.4","78.9","29.90","340","2.6","8.4","0.00","0.00"
"07:29:56","63.2","56.4","78.5","29.91","348","3.2","9.6","0.00","0.00"
"07:34:56","63.4","56.4","78","29.91","323","2.6","12","0.00","0.00"
"07:39:59","63.7","56.7","78","29.91","351","2.9","10.4","0.00","0.00"
"07:44:56","64.1","56.9","77.4","29.92","343","3","8.4","0.00","0.00"
"07:49:57","64.7","57.2","76.5","29.92","335","2.1","7.2","0.00","0.00"
"07:54:57","65.1","57.2","75.6","29.92","351","3.3","7.2","0.00","0.00"
"07:59:59","65.2","57.1","75","29.93","347","3.1","9.6","0.00","0.00"
"08:04:59","65.3","57.2","75","29.93","341","2.9","8.4","0.00","0.00"
"08:09:57","65.8","57.5","74.5","29.93","350","3.3","8.4","0.00","0.00"
"08:14:59","66.4","57.8","73.7","29.93","350","2.5","12","0.00","0.00"
"08:19:56","66.9","57.8","72.7","29.93","352","5.1","14.4","0.00","0.00"
"08:24:56","67","57.7","71.8","29.93","348","4.6","13.2","0.00","0.00"
"08:29:57","67","57.8","72.2","29.93","343","3.9","13.2","0.00","0.00"
"08:34:57","67","57.7","72","29.93","125","3.7","16.1","0.00","0.00"
"08:39:58","66.9","57.7","72.2","29.93","350","3.9","13.2","0.00","0.00"
"08:44:58","67.1","57.9","72.2","29.93","348","4.3","10.8","0.00","0.00"
"08:49:59","67.5","58","71.5","29.93","345","3.7","16.1","0.00","0.00"
"08:54:59","67.8","58","70.7","29.93","354","3.5","13.2","0.00","0.00"
"08:59:56","67.8","57.8","70.2","29.93","315","3.8","15","0.00","0.00"
"09:04:59","67.9","57.8","70.1","29.93","335","2.6","8.1","0.00","0.00"
"09:09:58","68","57.8","70.1","29.93","342","3.1","15","0.00","0.00"
"09:14:59","68","57.7","69.8","29.94","327","3","16.1","0.00","0.00"
"09:19:56","68.1","57.7","69.3","29.94","359","2.2","8.4","0.00","0.00"
"09:24:56","68.2","57","67.5","29.94","4","3.7","13.2","0.00","0.00"
"09:29:58","68.2","56.6","66.5","29.94","307","3.4","14.4","0.00","0.00"
"09:34:58","68.5","56.4","65.3","29.94","352","4.1","15","0.00","0.00"
"09:39:56","68.7","56.6","65.2","29.94","315","3.7","13.2","0.00","0.00"
"09:44:56","69.4","57.3","65.4","29.94","286","3.1","10.8","0.00","0.00"
"09:49:57","69.9","57.4","64.5","29.94","345","6.1","18.4","0.00","0.00"
"09:54:57","70","57.6","64.8","29.94","357","3.4","10.8","0.00","0.00"
"09:59:57","70.5","58.1","64.8","29.95","331","3.3","10.8","0.00","0.00"
"10:04:57","70.9","58.1","64.2","29.95","8","3.6","14.4","0.00","0.00"
"10:09:56","70.8","58","63.9","29.95","309","2.5","11.5","0.00","0.00"
"10:14:56","71.4","58.3","63.5","29.95","339","3.9","16.1","0.00","0.00"
"10:19:58","71.5","58.3","63.2","29.95","349","5.2","16.1","0.00","0.00"
"10:24:58","71","58","63.4","29.95","337","3.7","18","0.00","0.00"
"10:29:58","71.5","58.7","64","29.95","343","4.4","15","0.00","0.00"
"10:34:58","71.6","58.2","62.8","29.95","356","4.8","14.4","0.00","0.00"
"10:39:59","72.2","58.2","61.6","29.95","353","2.9","12","0.00","0.00"
"10:44:59","72.3","58.2","61.3","29.95","347","4.5","12","0.00","0.00"
"10:49:56","72.3","58.2","61.2","29.95","352","4.6","15.6","0.00","0.00"
"10:54:56","72.3","58.2","61.2","29.95","356","4.7","15","0.00","0.00"
"10:59:56","72.8","58.2","60.3","29.95","32","4.7","23","0.00","0.00"
"11:04:56","72.4","57.5","59.6","29.95","344","6.2","21.9","0.00","0.00"
"11:09:59","73","57.9","59.2","29.95","353","4.3","19.6","0.00","0.00"
"11:14:56","73.6","57.9","57.9","29.95","340","4.1","16.1","0.00","0.00"
"11:19:58","73.7","57.7","57.4","29.95","336","3.7","12","0.00","0.00"
"11:24:58","74.1","57.7","56.7","29.95","347","4.1","17.3","0.00","0.00"
"11:29:59","74.2","57.4","55.8","29.96","333","5.3","17.3","0.00","0.00"
"11:34:56","74.5","57.3","55","29.96","16","3","11.5","0.00","0.00"
"11:39:59","75.1","57.7","54.6","29.96","336","3.6","13.2","0.00","0.00"
"11:44:59","75.4","57","52.9","29.96","344","5.8","16.1","0.00","0.00"
"11:49:56","75.9","58","53.9","29.96","357","3.6","18.4","0.00","0.00"
"11:54:56","76","57","51.8","29.96","6","3","16.1","0.00","0.00"
"11:59:57","75.9","56.7","51.4","29.96","355","2.5","8.4","0.00","0.00"
"12:04:58","76.1","56.4","50.6","29.95","5","5.3","17.3","0.00","0.00"
"12:09:56","75.5","55.3","49.5","29.95","343","6.8","21.9","0.00","0.00"
"12:14:58","75.7","55.7","50.1","29.95","346","6.1","19.6","0.00","0.00"
"12:19:59","76.5","56.5","50.1","29.95","346","3.2","13.2","0.00","0.00"
"12:24:59","76.6","55.4","48","29.95","349","6.5","16.1","0.00","0.00"
"12:29:56","76.7","56.1","49.1","29.96","355","3.8","20.7","0.00","0.00"
"12:34:57","76.8","55.3","47.4","29.96","355","4.4","16.1","0.00","0.00"
"12:39:58","76.7","54.9","46.9","29.96","355","5.3","13.2","0.00","0.00"
"12:44:59","76.6","54.9","47","29.96","163","3.9","10.4","0.00","0.00"
"12:49:56","77.4","55","46","29.96","359","3.7","13.2","0.00","0.00"
"12:54:56","77.7","54.9","45.4","29.96","349","3.7","8.4","0.00","0.00"
"12:59:57","77.8","53.8","43.4","29.96","352","4.4","14.4","0.00","0.00"
"13:04:57","77.9","54.1","43.8","29.96","350","4.1","15","0.00","0.00"
"13:09:56","78.4","53.9","42.8","29.96","7","3.7","15","0.00","0.00"
"13:14:59","78.4","54.3","43.3","29.96","344","3.4","14.4","0.00","0.00"
"13:19:57","78.9","54.1","42.3","29.96","9","4.4","13.2","0.00","0.00"
"13:24:58","78.7","53.2","41.3","29.96","342","4.2","10.8","0.00","0.00"
"13:29:57","79.5","53.8","41.1","29.96","347","3.2","12","0.00","0.00"
"13:34:59","80.4","54","40.2","29.96","9","3.9","18.4","0.00","0.00"
"13:39:58","79.7","54","41.1","29.96","352","3.5","10.8","0.00","0.00"
"13:44:56","78.9","53.7","41.8","29.96","338","3.1","10.8","0.00","0.00"
"13:49:58","79.1","52.9","40.3","29.96","332","2.6","9.6","0.00","0.00"
"13:54:57","79.4","53.4","40.7","29.96","10","3.1","12","0.00","0.00"
"13:59:59","80.2","53.1","39.2","29.97","336","4.2","20.4","0.00","0.00"
"14:04:57","79.8","51.5","37.4","29.97","343","8.7","20.7","0.00","0.00"
"14:09:58","79.9","52.2","38.3","29.97","345","6.5","19.6","0.00","0.00"
"14:14:56","79.7","52.1","38.4","29.97","22","3.1","17.3","0.00","0.00"
"14:19:58","79.7","53.2","40.1","29.97","75","1.9","4.8","0.00","0.00"
"14:24:56","80.9","53.6","39","29.97","343","3.9","18","0.00","0.00"
"14:29:58","80.9","52.4","37.3","29.97","15","5","17.3","0.00","0.00"
"14:34:56","80","52.2","38.3","29.97","5","2.8","8.4","0.00","0.00"
"14:39:59","80.4","52.7","38.3","29.97","1","3.7","14.4","0.00","0.00"
"14:44:57","81.3","52.7","37.2","29.97","358","3.7","15","0.00","0.00"
"14:49:59","81.4","54.1","39","29.97","9","2","10.8","0.00","0.00"
"14:54:56","82.1","54.1","38.1","29.97","32","2.3","10.4","0.00","0.00"
"14:59:59","82.2","53","36.5","29.97","352","5.2","14.4","0.00","0.00"
"15:04:56","81.9","52.7","36.5","29.96","344","5.3","15","0.00","0.00"
"15:09:57","81.5","52","36.1","29.96","338","3.8","15","0.00","0.00"
"15:14:59","81.5","52.2","36.2","29.97","344","3.1","8.4","0.00","0.00"
"15:19:58","81.7","52","35.9","29.97","48","2.1","6","0.00","0.00"
"15:24:59","82.4","52","35","29.97","330","4","8.4","0.00","0.00"
"15:29:57","82.6","51.9","34.6","29.97","321","2.9","10.8","0.00","0.00"
"15:34:59","82.6","52.6","35.5","29.97","317","2.8","13.2","0.00","0.00"
"15:39:58","82.9","52.4","35","29.97","296","1.6","6","0.00","0.00"
"15:44:56","83.2","52.1","34.2","29.97","343","4.6","15","0.00","0.00"
"15:49:58","83.2","51.8","33.9","29.97","352","3.5","12","0.00","0.00"
"15:54:56","82.4","51.5","34.4","29.97","345","4.1","13.2","0.00","0.00"
"15:59:58","82.1","51.7","34.9","29.97","344","3.1","12","0.00","0.00"
"16:04:59","82.5","52.2","35","29.97","321","3.1","12","0.00","0.00"
"16:09:56","82.8","51.6","34.1","29.97","334","4","14.4","0.00","0.00"
"16:14:59","82.2","51","34","29.97","333","5.7","15","0.00","0.00"
"16:19:57","82.1","50.7","33.7","29.97","339","6.5","15","0.00","0.00"
"16:24:58","82.6","51.7","34.4","29.97","342","3.5","14.4","0.00","0.00"
"16:29:57","82.6","51","33.4","29.97","347","5.9","15","0.00","0.00"
"16:34:58","82.5","51.2","33.9","29.97","355","3.9","13.2","0.00","0.00"
"16:39:57","82.3","50.9","33.7","29.97","333","4","13.2","0.00","0.00"
"16:44:59","82.7","51.3","33.8","29.97","341","4.5","13.2","0.00","0.00"
"16:49:57","82.7","52","34.7","29.97","338","3.7","13.2","0.00","0.00"
"16:54:58","82.6","51.5","34.2","29.97","348","3.2","12","0.00","0.00"
"16:59:57","82.1","52.3","35.7","29.98","315","1.5","4.6","0.00","0.00"
"17:04:58","82.4","52","35","29.98","349","2.3","7.2","0.00","0.00"
"17:09:59","81.9","51.3","34.8","29.98","324","2","6.9","0.00","0.00"
"17:14:57","81.2","51.8","36.2","29.98","7","2.7","10.8","0.00","0.00"
"17:19:59","81.5","53","37.5","29.98","331","1.9","6","0.00","0.00"
"17:24:56","82.2","53.5","37.2","29.98","341","3.4","19.6","0.00","0.00"
"17:29:59","82.2","53.2","36.8","29.99","344","4.2","19.6","0.00","0.00"
"17:34:56","81.8","53.1","37.2","29.99","334","4.1","10.8","0.00","0.00"
"17:39:59","81.7","53.6","37.9","29.99","347","2.5","8.4","0.00","0.00"
"17:44:57","81.5","53.5","38.1","29.99","345","3.5","12","0.00","0.00"
"17:49:59","81.7","54.4","39.2","29.99","334","1.9","10.8","0.00","0.00"
"17:54:56","81.9","53.8","38","29.99","6","3.1","12","0.00","0.00"
"17:59:58","81.4","53.8","38.7","30.00","6","1.7","8.4","0.00","0.00"
"18:04:56","81","53.7","39","30.00","342","1.9","10.8","0.00","0.00"
"18:09:56","80.7","53.5","39.2","30.00","332","3.3","10.4","0.00","0.00"
"18:14:59","80.5","53.2","38.9","30.00","343","2.6","12","0.00","0.00"
"18:19:57","80","53.4","39.8","30.00","346","2.5","11.5","0.00","0.00"
"18:24:59","79.4","53.5","40.8","30.00","332","1.7","7.2","0.00","0.00"
"18:29:57","79","53.3","41","30.00","1","3.4","10.8","0.00","0.00"
"18:34:57","78.6","53.3","41.5","30.00","342","2.3","9.2","0.00","0.00"
"18:39:59","78.4","53.4","42","30.00","1","1.2","5.8","0.00","0.00"
"18:44:59","78.1","53.2","42.2","30.01","356","1.8","8.4","0.00","0.00"
"18:49:59","77.8","53.5","43","30.01","340","2.7","13.2","0.00","0.00"
"18:54:56","77.4","53.2","43.1","30.01","275","0.9","4.8","0.00","0.00"
"18:59:56","77.1","53.5","44","30.01","326","1.4","4.8","0.00","0.00"
"19:04:56","76.8","53.3","44.2","30.01","346","1.7","7.2","0.00","0.00"
"19:09:59","76.4","53.1","44.3","30.01","348","1.4","5.8","0.00","0.00"
"19:14:57","76.2","53.4","45.2","30.01","350","0.9","3.6","0.00","0.00"
"19:19:58","75.9","53.3","45.6","30.01","340","0.9","4.8","0.00","0.00"
"19:24:58","75.5","53.3","46","30.01","353","1.1","4.8","0.00","0.00"
"19:29:59","75.2","53.3","46.4","30.02","5","0.6","2.4","0.00","0.00"
"19:34:56","75","53.4","47","30.02","5","0.5","2.4","0.00","0.00"
"19:39:58","74.7","53.2","47.1","30.02","6","1.4","4.8","0.00","0.00"
"19:44:58","74.4","53.4","48","30.02","355","0.8","3.6","0.00","0.00"
"19:49:56","74.1","53.4","48.5","30.02","355","0.6","3.6","0.00","0.00"
"19:54:59","73.7","53.4","49","30.02","355","0.6","3.6","0.00","0.00"
"19:59:56","73.5","53.2","49.1","30.03","355","0.5","2.4","0.00","0.00"
"20:04:56","73.2","53.4","49.8","30.03","355","0.7","3.6","0.00","0.00"
"20:09:59","73","53.3","50","30.03","355","0.8","2.4","0.00","0.00"
"20:14:57","72.7","53.1","50.2","30.04","355","0.5","2.4","0.00","0.00"
"20:19:58","72.4","53.2","51","30.04","355","0.4","2.4","0.00","0.00"
"20:24:56","72","53.4","52","30.04","355","0.1","3.6","0.00","0.00"
"20:29:57","71.6","53","52","30.05","355","0.6","3.6","0.00","0.00"
"20:34:58","71.3","53","52.3","30.05","355","0.5","3.6","0.00","0.00"
"20:39:56","71.1","52.9","52.7","30.05","355","0.3","2.4","0.00","0.00"
"20:44:57","70.9","52.9","53","30.05","355","1","3.6","0.00","0.00"
"20:49:58","70.6","52.7","53.2","30.05","346","1.1","3.6","0.00","0.00"
"20:54:59","70.5","52.5","53","30.05","339","0.8","3.6","0.00","0.00"
"20:59:56","70.3","52.5","53.2","30.06","339","0.3","2.3","0.00","0.00"
"21:04:56","70.1","52.5","53.5","30.06","339","0.1","1.2","0.00","0.00"
"21:09:59","69.9","52.4","53.9","30.06","339","0.4","2.4","0.00","0.00"
"21:14:57","69.7","52.3","54","30.07","339","0.5","2.4","0.00","0.00"
"21:19:58","69.5","52.2","54.2","30.07","339","0.1","2.3","0.00","0.00"
"21:24:59","69.3","52.3","54.8","30.07","339","0.3","1.2","0.00","0.00"
"21:29:57","69.1","52.2","55","30.08","339","0.5","2.4","0.00","0.00"
"21:34:58","68.8","52.1","55.1","30.08","339","0.6","2.4","0.00","0.00"
"21:39:57","68.6","52.3","56","30.08","339","0.3","2.4","0.00","0.00"
"21:44:58","68.4","52.1","56","30.08","339","0.3","2.4","0.00","0.00"
"21:49:59","68.2","51.9","56","30.08","339","0.3","2.4","0.00","0.00"
"21:54:57","68","51.8","56.2","30.08","339","0","1.2","0.00","0.00"
"21:59:58","67.8","51.8","56.7","30.09","339","0.3","2.4","0.00","0.00"
"22:04:56","67.6","51.8","57","30.09","339","0","1.2","0.00","0.00"
"22:09:59","67.2","51.8","57.7","30.09","339","0.3","2.4","0.00","0.00"
"22:14:57","66.9","51.9","58.7","30.10","339","0.2","1.2","0.00","0.00"
"22:19:59","66.6","51.7","58.9","30.10","339","0.4","3.6","0.00","0.00"
"22:24:59","66.4","51.6","59","30.10","339","0.1","1.2","0.00","0.00"
"22:29:56","66.1","51.4","59","30.11","339","0.2","2.4","0.00","0.00"
"22:34:57","65.8","51.5","59.8","30.11","339","0","0","0.00","0.00"
"22:39:56","65.5","51.3","60.1","30.11","339","0","0","0.00","0.00"
"22:44:57","65.2","51.4","61","30.11","339","0.1","1.2","0.00","0.00"
"22:49:59","64.9","51.1","61.1","30.11","339","0","1.2","0.00","0.00"
"22:54:56","64.6","51.3","62","30.11","339","0.2","1.2","0.00","0.00"
"22:59:58","64.3","51.3","62.7","30.12","339","0.1","1.2","0.00","0.00"
"23:04:58","64","51.1","63","30.12","339","0","0","0.00","0.00"
"23:09:57","63.7","50.9","63.1","30.12","339","0","0","0.00","0.00"
"23:14:59","63.4","51.1","64.3","30.13","339","0","0","0.00","0.00"
"23:19:57","63","51.4","65.7","30.13","339","0","0","0.00","0.00"
"23:24:57","62.6","51.7","67.4","30.13","339","0","0","0.00","0.00"
"23:29:59","62.1","51.8","68.9","30.13","339","0","0","0.00","0.00"
"23:34:59","61.6","51.7","70","30.13","339","0","0","0.00","0.00"
"23:39:58","61.2","51.6","70.7","30.13","339","0","0","0.00","0.00"
"23:44:56","60.9","51.7","71.8","30.14","339","0","0","0.00","0.00"
"23:49:57","60.6","51.5","72.2","30.14","339","0","0","0.00","0.00"
"23:54:58","60.2","51.5","73","30.14","339","0","0","0.00","0.00"
